Time,TemperatureF,DewpointF,PressureIn,WindDirection,WindDirectionDegrees,WindSpeedMPH,WindSpeedGustMPH,Humidity,HourlyPrecipIn,Conditions,Clouds,dailyrainin,SoftwareType,DateUTC
2013-01-16 00:02:00,31.5,27.0,30.11,NNW,344,2.0,4.0,82,0.00,,,0.00,weatherlink.com 1.10,2013-01-16 05:02:00,
2013-01-16 00:17:00,31.1,27.0,30.08,ENE,67,0.0,3.0,84,0.00,,,0.00,weatherlink.com 1.10,2013-01-16 05:17:00,
2013-01-16 00:32:00,30.7,27.0,30.07,NNW,328,2.0,3.0,86,0.00,,,0.00,weatherlink.com 1.10,2013-01-16 05:32:00,
2013-01-16 00:47:00,30.7,27.0,30.07,NNW,336,0.0,4.0,87,0.00,,,0.00,weatherlink.com 1.10,2013-01-16 05:47:00,
2013-01-16 01:02:00,30.9,27.0,30.06,NNE,22,0.0,3.0,86,0.00,,,0.00,weatherlink.com 1.10,2013-01-16 06:02:00,
2013-01-16 01:17:00,30.9,27.0,30.07,NNW,342,0.0,3.0,86,0.00,,,0.00,weatherlink.com 1.10,2013-01-16 06:17:00,
2013-01-16 01:32:00,31.1,27.0,30.07,NNW,342,0.0,1.0,86,0.00,,,0.00,weatherlink.com 1.10,2013-01-16 06:32:00,
2013-01-16 01:47:00,31.3,27.0,30.09,North,5,0.0,1.0,85,0.00,,,0.00,weatherlink.com 1.10,2013-01-16 06:47:00,
2013-01-16 02:02:00,31.6,28.0,30.06,North,5,0.0,2.0,85,0.00,,,0.00,weatherlink.com 1.10,2013-01-16 07:02:00,
2013-01-16 02:17:00,31.7,28.0,30.07,NNW,339,0.0,3.0,85,0.00,,,0.00,weatherlink.com 1.10,2013-01-16 07:17:00,
2013-01-16 02:32:00,31.6,27.0,30.07,NNW,340,0.0,0.0,84,0.00,,,0.00,weatherlink.com 1.10,2013-01-16 07:32:00,
2013-01-16 02:47:00,31.7,28.0,30.07,NNW,340,0.0,0.0,85,0.00,,,0.00,weatherlink.com 1.10,2013-01-16 07:47:00,
2013-01-16 03:02:00,31.8,28.0,30.06,NNW,340,0.0,0.0,85,0.00,,,0.00,weatherlink.com 1.10,2013-01-16 08:02:00,
2013-01-16 03:17:00,31.9,28.0,30.07,NNW,333,0.0,1.0,84,0.00,,,0.00,weatherlink.com 1.10,2013-01-16 08:17:00,
2013-01-16 03:32:00,31.9,28.0,30.05,NNW,334,0.0,0.0,84,0.00,,,0.00,weatherlink.com 1.10,2013-01-16 08:32:00,
2013-01-16 03:47:00,31.9,28.0,30.06,NNW,335,0.0,0.0,84,0.00,,,0.00,weatherlink.com 1.10,2013-01-16 08:47:00,
2013-01-16 04:02:00,31.9,28.0,30.03,NNW,335,0.0,0.0,84,0.00,,,0.00,weatherlink.com 1.10,2013-01-16 09:02:00,
2013-01-16 04:17:00,31.9,28.0,30.03,NNW,335,0.0,0.0,85,0.00,,,0.00,weatherlink.com 1.10,2013-01-16 09:17:00,
2013-01-16 04:32:00,32.1,28.0,30.02,NNW,335,0.0,0.0,84,0.00,,,0.00,weatherlink.com 1.10,2013-01-16 09:32:00,
2013-01-16 04:47:00,32.1,28.0,30.03,NNW,335,0.0,0.0,83,0.00,,,0.00,weatherlink.com 1.10,2013-01-16 09:47:00,
2013-01-16 05:02:00,32.3,28.0,30.02,NNW,335,0.0,0.0,84,0.00,,,0.00,weatherlink.com 1.10,2013-01-16 10:02:00,
2013-01-16 05:17:00,32.3,28.0,30.02,NNW,335,0.0,0.0,83,0.00,,,0.00,weatherlink.com 1.10,2013-01-16 10:17:00,
2013-01-16 05:32:00,32.5,28.0,30.02,NNW,335,0.0,0.0,83,0.00,,,0.00,weatherlink.com 1.10,2013-01-16 10:32:00,
2013-01-16 05:47:00,32.6,27.0,30.02,WNW,294,0.0,4.0,81,0.00,,,0.00,weatherlink.com 1.10,2013-01-16 10:47:00,
2013-01-16 06:02:00,32.8,27.0,30.01,WNW,287,0.0,2.0,80,0.00,,,0.00,weatherlink.com 1.10,2013-01-16 11:02:00,
2013-01-16 06:17:00,32.9,27.0,30.01,NNW,336,1.0,3.0,79,0.00,,,0.00,weatherlink.com 1.10,2013-01-16 11:17:00,
2013-01-16 06:32:00,32.9,27.0,30.01,NNW,336,0.0,1.0,80,0.00,,,0.00,weatherlink.com 1.10,2013-01-16 11:32:00,
2013-01-16 06:47:00,32.8,27.0,30.03,SSW,205,1.0,3.0,80,0.00,,,0.00,weatherlink.com 1.10,2013-01-16 11:47:00,
2013-01-16 07:02:00,32.8,27.0,30.01,SSW,205,0.0,0.0,80,0.00,,,0.00,weatherlink.com 1.10,2013-01-16 12:02:00,
2013-01-16 07:17:00,32.6,27.0,30.00,SSW,205,1.0,1.0,79,0.00,,,0.00,weatherlink.com 1.10,2013-01-16 12:17:00,
2013-01-16 07:32:00,32.8,27.0,30.02,SSW,207,0.0,3.0,79,0.00,,,0.00,weatherlink.com 1.10,2013-01-16 12:32:00,
2013-01-16 07:47:00,32.9,27.0,30.01,SSW,208,0.0,3.0,80,0.00,,,0.00,weatherlink.com 1.10,2013-01-16 12:47:00,
2013-01-16 08:02:00,32.9,27.0,30.02,WNW,300,0.0,5.0,80,0.00,,,0.00,weatherlink.com 1.10,2013-01-16 13:02:00,
2013-01-16 08:17:00,32.9,27.0,30.03,WNW,292,0.0,5.0,80,0.00,,,0.00,weatherlink.com 1.10,2013-01-16 13:17:00,
2013-01-16 08:32:00,32.8,27.0,30.03,WSW,240,0.0,4.0,80,0.00,,,0.00,weatherlink.com 1.10,2013-01-16 13:32:00,
2013-01-16 08:47:00,32.8,28.0,30.04,West,279,0.0,4.0,81,0.00,,,0.00,weatherlink.com 1.10,2013-01-16 13:47:00,
2013-01-16 09:02:00,32.8,27.0,30.06,SSW,198,3.0,4.0,80,0.00,,,0.00,weatherlink.com 1.10,2013-01-16 14:02:00,
2013-01-16 09:17:00,32.8,27.0,30.06,SW,229,0.0,4.0,79,0.00,,,0.00,weatherlink.com 1.10,2013-01-16 14:17:00,
2013-01-16 09:33:00,32.7,27.0,30.07,SSW,194,0.0,5.0,79,0.00,,,0.00,weatherlink.com 1.10,2013-01-16 14:33:00,
2013-01-16 09:48:00,32.8,27.0,30.07,SW,215,1.0,6.0,80,0.00,,,0.00,weatherlink.com 1.10,2013-01-16 14:48:00,
2013-01-16 10:03:00,32.8,27.0,30.07,SW,219,3.0,5.0,80,0.00,,,0.00,weatherlink.com 1.10,2013-01-16 15:03:00,
2013-01-16 10:18:00,33.2,28.0,30.08,South,189,2.0,7.0,80,0.00,,,0.00,weatherlink.com 1.10,2013-01-16 15:18:00,
2013-01-16 10:33:00,33.2,27.0,30.06,SW,219,0.0,7.0,79,0.00,,,0.00,weatherlink.com 1.10,2013-01-16 15:33:00,
2013-01-16 10:48:00,33.5,28.0,30.06,South,182,3.0,5.0,80,0.01,,,0.01,weatherlink.com 1.10,2013-01-16 15:48:00,
2013-01-16 11:03:00,33.4,28.0,30.05,SW,223,3.0,4.0,80,0.01,,,0.01,weatherlink.com 1.10,2013-01-16 16:03:00,
2013-01-16 11:18:00,33.9,28.0,30.07,South,185,1.0,6.0,80,0.01,,,0.01,weatherlink.com 1.10,2013-01-16 16:18:00,
2013-01-16 11:33:00,34.1,29.0,30.05,SW,230,3.0,7.0,80,0.01,,,0.01,weatherlink.com 1.10,2013-01-16 16:33:00,
2013-01-16 11:48:00,34.1,29.0,30.02,SSW,209,1.0,6.0,80,0.00,,,0.01,weatherlink.com 1.10,2013-01-16 16:48:00,
2013-01-16 12:03:00,34.1,28.0,30.02,WSW,258,3.0,7.0,79,0.00,,,0.01,weatherlink.com 1.10,2013-01-16 17:03:00,
2013-01-16 12:18:00,34.5,28.0,30.02,SSW,194,0.0,6.0,78,0.00,,,0.01,weatherlink.com 1.10,2013-01-16 17:18:00,
2013-01-16 12:33:00,34.4,28.0,30.02,South,174,4.0,7.0,78,0.00,,,0.01,weatherlink.com 1.10,2013-01-16 17:33:00,
2013-01-16 12:48:00,34.8,28.0,30.01,SW,221,1.0,6.0,77,0.00,,,0.01,weatherlink.com 1.10,2013-01-16 17:48:00,
2013-01-16 13:03:00,35.2,28.0,30.01,SW,214,3.0,7.0,76,0.00,,,0.01,weatherlink.com 1.10,2013-01-16 18:03:00,
2013-01-16 13:18:00,35.0,28.0,30.01,South,190,3.0,8.0,76,0.00,,,0.01,weatherlink.com 1.10,2013-01-16 18:18:00,
2013-01-16 13:33:00,35.4,29.0,30.00,South,178,1.0,9.0,76,0.00,,,0.01,weatherlink.com 1.10,2013-01-16 18:33:00,
2013-01-16 13:48:00,35.8,29.0,30.00,South,191,4.0,8.0,75,0.00,,,0.01,weatherlink.com 1.10,2013-01-16 18:48:00,
2013-01-16 14:03:00,36.4,28.0,30.01,WSW,242,4.0,8.0,72,0.00,,,0.01,weatherlink.com 1.10,2013-01-16 19:03:00,
2013-01-16 14:18:00,36.5,28.0,30.02,South,180,4.0,7.0,72,0.00,,,0.01,weatherlink.com 1.10,2013-01-16 19:18:00,
2013-01-16 14:33:00,36.6,28.0,30.02,South,180,3.0,8.0,70,0.00,,,0.01,weatherlink.com 1.10,2013-01-16 19:33:00,
2013-01-16 14:48:00,36.4,27.0,30.01,South,190,2.0,7.0,69,0.00,,,0.01,weatherlink.com 1.10,2013-01-16 19:48:00,
2013-01-16 15:03:00,36.5,27.0,30.00,South,187,2.0,6.0,69,0.00,,,0.01,weatherlink.com 1.10,2013-01-16 20:03:00,
2013-01-16 15:18:00,36.9,28.0,30.01,South,191,4.0,6.0,69,0.00,,,0.01,weatherlink.com 1.10,2013-01-16 20:18:00,
2013-01-16 15:33:00,36.8,27.0,30.01,South,181,4.0,6.0,69,0.00,,,0.01,weatherlink.com 1.10,2013-01-16 20:33:00,
2013-01-16 15:48:00,37.0,28.0,30.02,South,175,1.0,8.0,69,0.00,,,0.01,weatherlink.com 1.10,2013-01-16 20:48:00,
2013-01-16 16:03:00,37.0,28.0,30.03,SSE,165,4.0,7.0,70,0.00,,,0.01,weatherlink.com 1.10,2013-01-16 21:03:00,
2013-01-16 16:18:00,36.7,27.0,30.02,SSW,196,1.0,11.0,68,0.00,,,0.01,weatherlink.com 1.10,2013-01-16 21:18:00,
2013-01-16 16:33:00,36.6,28.0,30.04,South,181,0.0,7.0,71,0.00,,,0.01,weatherlink.com 1.10,2013-01-16 21:33:00,
2013-01-16 16:48:00,36.2,29.0,30.04,South,184,2.0,7.0,75,0.00,,,0.01,weatherlink.com 1.10,2013-01-16 21:48:00,
2013-01-16 17:03:00,35.6,29.0,30.04,South,177,3.0,9.0,76,0.00,,,0.01,weatherlink.com 1.10,2013-01-16 22:03:00,
2013-01-16 17:18:00,35.4,29.0,30.06,South,182,2.0,6.0,77,0.00,,,0.01,weatherlink.com 1.10,2013-01-16 22:18:00,
2013-01-16 17:33:00,35.1,29.0,30.05,SE,145,0.0,7.0,78,0.00,,,0.01,weatherlink.com 1.10,2013-01-16 22:33:00,
2013-01-16 17:48:00,34.8,29.0,30.05,SSE,165,1.0,9.0,78,0.00,,,0.01,weatherlink.com 1.10,2013-01-16 22:48:00,
2013-01-16 18:03:00,34.5,29.0,30.06,SSE,167,2.0,7.0,79,0.00,,,0.01,weatherlink.com 1.10,2013-01-16 23:03:00,
2013-01-16 18:18:00,34.2,29.0,30.05,South,188,3.0,5.0,80,0.00,,,0.01,weatherlink.com 1.10,2013-01-16 23:18:00,
2013-01-16 18:33:00,33.9,29.0,30.05,South,185,0.0,4.0,81,0.00,,,0.01,weatherlink.com 1.10,2013-01-16 23:33:00,
2013-01-16 18:48:00,33.7,29.0,30.06,South,184,2.0,4.0,82,0.00,,,0.01,weatherlink.com 1.10,2013-01-16 23:48:00,
2013-01-16 19:03:00,33.6,29.0,30.07,SSE,166,3.0,5.0,82,0.00,,,0.01,weatherlink.com 1.10,2013-01-17 00:03:00,
2013-01-16 19:18:00,33.5,29.0,30.07,South,174,0.0,4.0,83,0.00,,,0.01,weatherlink.com 1.10,2013-01-17 00:18:00,
2013-01-16 19:33:00,33.3,29.0,30.08,SE,138,1.0,4.0,83,0.00,,,0.01,weatherlink.com 1.10,2013-01-17 00:33:00,
2013-01-16 19:48:00,33.2,29.0,30.09,SE,142,0.0,2.0,83,0.00,,,0.01,weatherlink.com 1.10,2013-01-17 00:48:00,
2013-01-16 20:03:00,33.1,29.0,30.08,SSE,163,2.0,3.0,83,0.00,,,0.01,weatherlink.com 1.10,2013-01-17 01:03:00,
2013-01-16 20:18:00,33.2,29.0,30.09,South,181,3.0,3.0,83,0.00,,,0.01,weatherlink.com 1.10,2013-01-17 01:18:00,
2013-01-16 20:33:00,33.1,29.0,30.09,SSE,156,0.0,4.0,83,0.00,,,0.01,weatherlink.com 1.10,2013-01-17 01:33:00,
2013-01-16 20:48:00,33.0,28.0,30.09,SSW,198,2.0,3.0,83,0.00,,,0.01,weatherlink.com 1.10,2013-01-17 01:48:00,
2013-01-16 21:03:00,32.8,29.0,30.09,South,182,3.0,5.0,84,0.00,,,0.01,weatherlink.com 1.10,2013-01-17 02:03:00,
2013-01-16 21:18:00,32.8,29.0,30.09,South,174,0.0,3.0,84,0.00,,,0.01,weatherlink.com 1.10,2013-01-17 02:18:00,
2013-01-16 21:33:00,32.7,28.0,30.09,South,178,3.0,5.0,84,0.00,,,0.01,weatherlink.com 1.10,2013-01-17 02:33:00,
2013-01-16 21:48:00,32.6,29.0,30.09,SSE,163,2.0,4.0,85,0.00,,,0.01,weatherlink.com 1.10,2013-01-17 02:48:00,
2013-01-16 22:03:00,32.6,29.0,30.10,South,186,0.0,3.0,85,0.00,,,0.01,weatherlink.com 1.10,2013-01-17 03:03:00,
2013-01-16 22:18:00,32.5,29.0,30.10,SSE,167,0.0,3.0,85,0.00,,,0.01,weatherlink.com 1.10,2013-01-17 03:18:00,
2013-01-16 22:33:00,32.3,29.0,30.11,South,182,0.0,4.0,86,0.00,,,0.01,weatherlink.com 1.10,2013-01-17 03:33:00,
2013-01-16 22:48:00,32.2,29.0,30.09,South,169,1.0,4.0,86,0.00,,,0.01,weatherlink.com 1.10,2013-01-17 03:48:00,
2013-01-16 23:03:00,32.2,29.0,30.11,South,174,0.0,4.0,86,0.00,,,0.01,weatherlink.com 1.10,2013-01-17 04:03:00,
2013-01-16 23:18:00,32.3,28.0,30.11,South,188,2.0,5.0,85,0.00,,,0.01,weatherlink.com 1.10,2013-01-17 04:18:00,
2013-01-16 23:33:00,32.3,28.0,30.10,South,180,0.0,3.0,85,0.00,,,0.01,weatherlink.com 1.10,2013-01-17 04:33:00,
2013-01-16 23:48:00,32.3,28.0,30.11,WSW,245,1.0,5.0,84,0.00,,,0.01,weatherlink.com 1.10,2013-01-17 04:48:00,